Zurück zum Katalog

CZ-4 DEB

AktivPO
NORAD 26207·DEBRIS·🇨🇳 China

Gestartet Oct 14, 1999 von Taiyuan Satellite Launch Center

Loading…

Nächste Überflüge (nächste 24 Stunden)

TLE

AktuellSource: Space-Track

Epoche: Sep 14, 2026, 14:27 UTC

1 26207U 99057CV  26257.60227736  .00011037  00000-0  11072-2 0  9997
2 26207  98.4028  20.6422 0054320 120.4315 250.7199 14.90403603396995

Verfolge CZ-4 DEB in Echtzeit mit AllMySat

Download on the App Store